Weather History for KCPW - March, 2014

Change the Weather History Date:

Wednesday, March 19, 2014

  Actual Average (KALS) Record (KALS)
Temperature  
Mean Temperature 16 °F 35 °F  
Max Temperature 26 °F 51 °F 72 °F (1907)
Min Temperature 5 °F 18 °F -6 °F (1944)
Degree Days  
Heating Degree Days 50 30  
Month to date heating degree days 631  
Since 1 July heating degree days 6960  
Cooling Degree Days 0 0  
Month to date cooling degree days 0  
Year to date cooling degree days 0  
Moisture  
Dew Point 1 °F    
Average Humidity 59    
Maximum Humidity 85    
Minimum Humidity 36    
Precipitation  
Precipitation 0.00 in 0.01 in 0.16 in (2010)
Month to date precipitation 0.30  
Year to date precipitation 0.82  
Snow  
Snow 0.00 in 0.20 in 2.50 in (2010)
Month to date snowfall 3.0  
Since 1 July snowfall 21.1  
Snow Depth -    
Sea Level Pressure  
Sea Level Pressure 30.13 in    
Wind  
Wind Speed 10 mph (SW)    
Max Wind Speed 31 mph    
Max Gust Speed 37 mph    
Visibility 10 miles    
Events      
T = Trace of Precipitation, MM = Missing Value Source: NWS Daily Summary

Daily Weather History Graph

Daily Weather History Graph

Search for Another Location

Airport or City:

Trip Planner

Search our weather history database for the weather conditions in past years. The results will help you decide how hot, cold, wet, or windy it might be!

Date:

Astronomy

Mar. 19, 2014 Rise Set
Actual Time 7:12 AM MDT 7:18 PM MDT
Civil Twilight 6:46 AM MDT 7:44 PM MDT
Nautical Twilight 6:15 AM MDT 8:14 PM MDT
Astronomical Twilight 5:44 AM MDT 8:45 PM MDT
Moon 10:35 PM MDT (3/19) 8:43 AM MDT (3/19)
Length of Visible Light 12h 58m
Length of Day
12h 06m
Waning Gibbous, 91% of the Moon is Illuminated
Mar 19
Waning Gibbous
Mar 23
Last Quarter
Mar 30
New
Apr 7
First Quarter
Apr 15
Full

Hourly Weather History & Observations

Time (MDT) Temp. Windchill Dew Point Humidity Pressure Visibility Wind Dir Wind Speed Gust Speed Precip Events Conditions
12:15 AM 8.6 °F -4.7 °F 1.4 °F 73% 29.98 in 10.0 mi SW 9.2 mph - N/A   Clear
12:40 AM 8.6 °F -5.5 °F 1.4 °F 73% 29.98 in 10.0 mi SW 10.4 mph - N/A   Clear
1:03 AM 8.6 °F -5.5 °F 1.4 °F 73% 29.98 in 10.0 mi SW 10.4 mph 16.1 mph N/A   Clear
1:15 AM 6.8 °F -7.8 °F 1.4 °F 79% 29.99 in 10.0 mi SW 10.4 mph - N/A   Clear
1:44 AM 6.8 °F -7.8 °F 1.4 °F 79% 29.99 in 10.0 mi WSW 10.4 mph - N/A   Clear
2:02 AM 6.8 °F -6.9 °F 1.4 °F 79% 29.99 in 10.0 mi WSW 9.2 mph - N/A   Clear
2:08 AM 6.8 °F -6.9 °F 1.4 °F 79% 29.99 in 10.0 mi WSW 9.2 mph - N/A   Clear
2:33 AM 6.8 °F -4.8 °F 1.4 °F 79% 30.00 in 10.0 mi WSW 6.9 mph - N/A   Clear
2:48 AM 5.0 °F -8.1 °F 1.4 °F 85% 30.01 in 10.0 mi WSW 8.1 mph - N/A   Clear
3:21 AM 5.0 °F -4.1 °F 1.4 °F 85% 30.00 in 10.0 mi WSW 4.6 mph - N/A   Clear
3:34 AM 5.0 °F -5.6 °F 1.4 °F 85% 30.01 in 10.0 mi WSW 5.8 mph - N/A   Clear
3:46 AM 6.8 °F -2.0 °F 1.4 °F 79% 30.01 in 10.0 mi WSW 4.6 mph - N/A   Clear
4:15 AM 6.8 °F -2.0 °F 1.4 °F 79% 30.01 in 10.0 mi SW 4.6 mph - N/A   Clear
4:39 AM 5.0 °F -5.6 °F 1.4 °F 85% 30.02 in 10.0 mi WSW 5.8 mph - N/A   Clear
5:01 AM 6.8 °F -2.0 °F 1.4 °F 79% 30.03 in 10.0 mi SW 4.6 mph - N/A   Clear
5:15 AM 5.0 °F -5.6 °F 1.4 °F 85% 30.03 in 10.0 mi SW 5.8 mph - N/A   Clear
5:32 AM 5.0 °F -4.1 °F 1.4 °F 85% 30.04 in 10.0 mi SSW 4.6 mph - N/A   Clear
6:04 AM 5.0 °F -4.1 °F 1.4 °F 85% 30.04 in 10.0 mi SW 4.6 mph - N/A   Clear
6:19 AM 5.0 °F -2.1 °F 1.4 °F 85% 30.05 in 10.0 mi SW 3.5 mph - N/A   Clear
6:42 AM 6.8 °F -0.1 °F 3.2 °F 85% 30.06 in 10.0 mi North 3.5 mph - N/A   Scattered Clouds
6:52 AM 6.8 °F - 3.2 °F 85% 30.06 in 10.0 mi North - - N/A   Mostly Cloudy
7:22 AM 5.0 °F -2.1 °F 1.4 °F 85% 30.08 in 10.0 mi West 3.5 mph - N/A   Clear
7:55 AM 5.0 °F -8.1 °F -0.4 °F 78% 30.08 in 10.0 mi NE 8.1 mph - N/A   Clear
8:39 AM 8.6 °F 0.1 °F -0.4 °F 67% 30.11 in 10.0 mi NE 4.6 mph - N/A   Clear
8:59 AM 8.6 °F -2.6 °F -0.4 °F 67% 30.12 in 10.0 mi NE 6.9 mph - N/A   Clear
9:34 AM 10.4 °F 2.2 °F -0.4 °F 62% 30.13 in 10.0 mi East 4.6 mph - N/A   Clear
9:59 AM 10.4 °F -0.4 °F -0.4 °F 62% 30.15 in 10.0 mi ENE 6.9 mph - N/A   Clear
10:20 AM 12.2 °F - -0.4 °F 57% 30.17 in 10.0 mi Calm Calm - N/A   Clear
10:44 AM 14.0 °F - -4.0 °F 45% 30.17 in 10.0 mi Calm Calm - N/A   Clear
11:02 AM 15.8 °F 8.6 °F -5.8 °F 38% 30.17 in 10.0 mi SSW 4.6 mph - N/A   Clear
11:23 AM 17.6 °F 7.3 °F -0.4 °F 45% 30.19 in 10.0 mi SSW 8.1 mph - N/A   Clear
11:32 AM 17.6 °F 7.3 °F -0.4 °F 45% 30.19 in 10.0 mi SSW 8.1 mph - N/A   Clear
12:01 PM 19.4 °F 14.3 °F -0.4 °F 42% 30.19 in 10.0 mi SW 3.5 mph - N/A   Clear
12:42 PM 21.2 °F 12.6 °F -2.2 °F 36% 30.19 in 10.0 mi SW 6.9 mph - N/A   Clear
1:16 PM 21.2 °F 9.5 °F -0.4 °F 39% 30.19 in 10.0 mi SSW 11.5 mph 19.6 mph N/A   Clear
1:28 PM 23.0 °F 13.1 °F 1.4 °F 39% 30.19 in 10.0 mi SSW 9.2 mph - N/A   Clear
1:58 PM 23.0 °F 11.7 °F 1.4 °F 39% 30.20 in 10.0 mi WSW 11.5 mph 16.1 mph N/A   Clear
2:24 PM 23.0 °F 13.9 °F -0.4 °F 36% 30.20 in 10.0 mi West 8.1 mph 16.1 mph N/A   Clear
2:43 PM 24.8 °F 14.0 °F 3.2 °F 40% 30.20 in 10.0 mi SW 11.5 mph 18.4 mph N/A   Clear
3:01 PM 26.6 °F 16.2 °F 3.2 °F 37% 30.20 in 10.0 mi WSW 11.5 mph 17.3 mph N/A   Clear
3:17 PM 26.6 °F 16.8 °F 3.2 °F 37% 30.20 in 10.0 mi SW 10.4 mph - N/A   Clear
3:44 PM 26.6 °F 14.7 °F 5.0 °F 40% 30.19 in 10.0 mi SW 15.0 mph 21.9 mph N/A   Clear
4:02 PM 26.6 °F 13.8 °F 3.2 °F 37% 30.19 in 10.0 mi SW 17.3 mph 24.2 mph N/A   Clear
4:13 PM 26.6 °F 15.2 °F 3.2 °F 37% 30.19 in 10.0 mi WSW 13.8 mph 23.0 mph N/A   Clear
4:39 PM 26.6 °F 16.8 °F 3.2 °F 37% 30.20 in 10.0 mi SW 10.4 mph 19.6 mph N/A   Clear
4:59 PM 26.6 °F 15.2 °F 3.2 °F 37% 30.20 in 10.0 mi SW 13.8 mph 24.2 mph N/A   Clear
5:19 PM 26.6 °F 13.8 °F 3.2 °F 37% 30.20 in 10.0 mi SW 17.3 mph 23.0 mph N/A   Clear
6:24 PM 23.0 °F 8.7 °F 3.2 °F 43% 30.21 in 10.0 mi SW 18.4 mph 27.6 mph N/A   Clear
7:02 PM 23.0 °F 10.6 °F 3.2 °F 43% 30.22 in 10.0 mi SW 13.8 mph 29.9 mph N/A   Clear
7:12 PM 21.2 °F 6.0 °F 3.2 °F 46% 30.22 in 10.0 mi SW 19.6 mph 26.5 mph N/A   Clear
7:34 PM 21.2 °F 4.2 °F 3.2 °F 46% 30.22 in 10.0 mi SW 25.3 mph 33.4 mph N/A   Clear
7:59 PM 19.4 °F 1.4 °F 1.4 °F 46% 30.22 in 10.0 mi SW 26.5 mph 34.5 mph N/A   Clear
8:22 PM 19.4 °F 1.1 °F 1.4 °F 46% 30.24 in 10.0 mi SW 27.6 mph - N/A   Clear
9:14 PM 17.6 °F -2.2 °F 1.4 °F 49% 30.24 in 10.0 mi SW 31.1 mph 36.8 mph N/A   Clear
9:38 PM 17.6 °F -1.6 °F 1.4 °F 49% 30.25 in 10.0 mi SW 28.8 mph 36.8 mph N/A   Clear
9:57 PM 17.6 °F -1.0 °F 1.4 °F 49% 30.26 in 10.0 mi SW 26.5 mph 33.4 mph N/A   Clear
10:22 PM 17.6 °F 0.1 °F 1.4 °F 49% 30.27 in 10.0 mi SW 23.0 mph 31.1 mph N/A   Clear
10:44 PM 17.6 °F -1.3 °F 1.4 °F 49% 30.26 in 10.0 mi SW 27.6 mph - N/A   Clear
10:47 PM 17.6 °F -1.0 °F 1.4 °F 49% 30.26 in 10.0 mi SW 26.5 mph - N/A   Clear
11:19 PM 14.0 °F -5.5 °F 1.4 °F 57% 30.24 in 10.0 mi SW 25.3 mph - N/A   Clear
11:43 PM 15.8 °F -3.7 °F 3.2 °F 58% 30.24 in 10.0 mi SW 27.6 mph - N/A   Clear